Location: Asheville, NC
(35.6000°N, 82.5500°W)
Time: 19:33:56
(UTC-04:00)

AO-85 - Pass Details

Date: 17 February 2018
Orbit: 499 x 787 km, 64.8° (Epoch: 24 May)

Event Time Altitude Azimuth Distance (km) Brightness Sun altitude
Exits shadow 04:26:53 14° 53° (NE) 1,592 ? -34.7°
Drops below altitude 10° 04:27:37 10° 48° (NE) 1,857 ? -34.5°
Sets 04:30:04 0° 39° (NE) 2,808 ? -34.0°
